Regional Weather Roundup
Issued by NWS

Home | Current Version | Previous Version | Text Only | Print | Product List | Glossary Off
Versions: 1 2 3 4 5 6 7 8 9 10 11 12 13 14 15 16 17 18 19 20 21 22 23 24 25 26 27 28 29 30 31 32 33 34 35 36 37 38 39 40 41 42 43 44 45 46 47 48 49 50

000
ASUS43 KDMX 301801
RWRIA

WEATHER ROUNDUP FOR IOWA
NATIONAL WEATHER SERVICE DES MOINES IA
100 PM CDT SUN APR 30 2017

NOTE: "FAIR" INDICATES FEW OR NO CLOUDS BELOW 12,000 FEET WITH NO
SIGNIFICANT WEATHER AND/OR OBSTRUCTIONS TO VISIBILITY.

* - THESE STATIONS ARE NOT NWS STATIONS...THUS NOT UNDER NWS
QUALITY CONTROL.  THEY ALSO DO NOT REPORT WEATHER SUCH
AS PRECIPITATION OR FOG.

IAZ001>003-012>014-020>022-031>034-043>046-301900-
   NORTHWEST IOWA

CITY           SKY/WX    TMP DP  RH WIND       PRES   REMARKS
CARROLL *      CLOUDY    43  43 100 NE24G36   29.65F
CHEROKEE *     CLOUDY    39  38  96 NE24      29.75S WCI  28
DENISON *      CLOUDY    41  39  93 NE24G36   29.66F
ORANGE CITY *  CLOUDY    39  37  93 NE15G28   29.77F WCI  31
SHELDON *      CLOUDY    39  37  93 NE26      29.78F WCI  28
SIOUX CITY     LGT RAIN  40  39  97 NE21G29   29.73F FOG     WCI  30
6HR MIN TEMP:  39; 6HR MAX TEMP:  41; 6HR PCP:  0.30;

SPENCER        CLOUDY    40  37  89 NE29G40   29.76F WCI  29
6HR MIN TEMP:  39; 6HR MAX TEMP:  40; 6HR PCP:  0.09;

STORM LAKE *   CLOUDY    37  36  93 NE31G39   29.72F WCI  25
$$

IAZ055>058-069>071-079>083-090>094-301900-
   SOUTHWEST IOWA

CITY           SKY/WX    TMP DP  RH WIND       PRES   REMARKS
ATLANTIC *     CLOUDY    43  41  93 NE21G35   29.56F
AUDUBON *      CLOUDY    43  39  87 NE28G35   29.63F
CLARINDA *     PTSUNNY   45  45 100 NE17G32   29.52F FOG
COUNCIL BLFS *   N/A     43  43 100 NE25G43   29.51F
CRESTON *      MIX PCPN  43  43 100 NE22G36   29.57R VSB 1
HARLAN  *      CLOUDY    43  43 100 NE22G38   29.60F
LAMONI         RAIN      45  44  97 NE18G29   29.55F FOG
6HR MIN TEMP:  41; 6HR MAX TEMP:  45; 6HR PCP:  0.15;

RED OAK *      MIX PCPN  45  43  93 NE30G43   29.51F
SHENANDOAH *   FOG       45  45 100 NE24      29.48F VSB 1
$$

IAZ047>049-059>061-072>074-084-301900-
   CENTRAL IOWA

CITY           SKY/WX    TMP DP  RH WIND       PRES   REMARKS
AMES           CLOUDY    42  42 100 NE17G36   29.71F
6HR MIN TEMP:  40; 6HR MAX TEMP:  42; 6HR PCP:  0.15;

ANKENY *       CLOUDY    43  41  93 NE20G26   29.68S
BOONE *        CLOUDY    41  41 100 E28G35    29.69S
CHARITON *     CLOUDY    43  43 100 E18G29    29.60F
DES MOINES     DRIZZLE   44  41  89 NE15G26   29.67F
6HR MIN TEMP:  41; 6HR MAX TEMP:  44; 6HR PCP:  0.17;

GRINNELL*      CLOUDY    41  40  97 NE26G36   29.68F
KNOXVILLE *    CLOUDY    43  43 100 E17G26    29.64F
MARSHALLTOWN   LGT RAIN  43  41  93 E30G37    29.71F
6HR MIN TEMP:  40; 6HR MAX TEMP:  43; 6HR PCP:  0.05;

NEWTON *       CLOUDY    41  41 100 NE31G37   29.64F FOG
PELLA *        LGT RAIN  43  42  97 E13G22    29.67F
PERRY *        CLOUDY    43  41  92 E23       29.66F
$$

IAZ004>006-015-016-023>025-035-036-301900-
   NORTH CENTRAL IOWA

CITY           SKY/WX    TMP DP  RH WIND       PRES   REMARKS
ALGONA *       CLOUDY    41  41 100 NE22      29.76F
CLARION *      CLOUDY    41  41 100 NE28G35   29.72F
ESTHERVILLE    CLOUDY    38  37  97 NE21      29.82F FOG     WCI  28
6HR MIN TEMP:  37; 6HR MAX TEMP:  39; 6HR PCP:  0.01;

FORT DODGE *   CLOUDY    41  36  81 NE20G25   29.74F
MASON CITY     CLOUDY    41  37  86 NE22      29.80F
6HR MIN TEMP:  39; 6HR MAX TEMP:  41; 6HR PCP:  0.02;

FOREST CITY *  DRIZZLE   41  34  75 E15G21    29.79F
WEBSTER CITY * CLOUDY    41  39  93 NE26G37   29.69F
IOWA FALLS *   CLOUDY    42  40  91 NE21G29   29.72F
$$

IAZ007>011-017>019-026>030-037>042-050>054-066-301900-
   NORTHEAST IOWA

CITY           SKY/WX    TMP DP  RH WIND       PRES   REMARKS
CEDAR RAPIDS   CLOUDY    44  43  96 E20       29.75F
6HR MIN TEMP:  41; 6HR MAX TEMP:  44;

CHARLES CITY * CLOUDY    43  39  87 NE18G24   29.81F
CLINTON *      CLOUDY    46  44  93 NE21      29.75F
DECORAH *      CLOUDY    43  37  81 NE14G22   29.83F
DUBUQUE        CLOUDY    43  40  89 NE24G30   29.78F
6HR MIN TEMP:  39; 6HR MAX TEMP:  43;

MONTICELLO *   CLOUDY    45  41  87 NE12G21   29.76F
OELWEIN *      CLOUDY    45  41  87 NE22G28   29.78F
WATERLOO       CLOUDY    44  39  82 NE22G30   29.77F
6HR MIN TEMP:  41; 6HR MAX TEMP:  44; 6HR PCP:  0.01;

$$

IAZ064-065-067-068-078-301900-
   EAST CENTRAL IOWA

CITY           SKY/WX    TMP DP  RH WIND       PRES   REMARKS
DAVENPORT      CLOUDY    46  43  89 NE16      29.76F
6HR MIN TEMP:  42; 6HR MAX TEMP:  46; 6HR PCP:  0.01;

IOWA CITY      CLOUDY    46  42  86 E17G24    29.76F
6HR MIN TEMP:  44; 6HR MAX TEMP:  46; 6HR PCP:  0.01;

MUSCATINE *    CLOUDY    46  45  93 NE15G22   29.74F FOG
QUAD CITIES    CLOUDY    47  43  86 NE13      29.74F FOG
6HR MIN TEMP:  44; 6HR MAX TEMP:  47; 6HR PCP:  0.03;

$$

IAZ062-063-075>077-085>089-095>099-301900-
   SOUTHEAST IOWA

CITY           SKY/WX    TMP DP  RH WIND       PRES   REMARKS
BURLINGTON     CLOUDY    47  47 100 NE10      29.72S FOG
6HR MIN TEMP:  45; 6HR MAX TEMP:  47; 6HR PCP:  0.02;

FAIRFIELD *    CLOUDY    45  45 100 E14       29.70F FOG
FORT MADISON * CLOUDY    46  46 100 NE8G17    29.71F FOG
KEOKUK *       LGT RAIN  46  46 100 NE13      29.68F
OSKALOOSA *    LGT RAIN  43  42  95 E22       29.67F
OTTUMWA        LGT RAIN  45  44  97 E23G30    29.66F
6HR MIN TEMP:  43; 6HR MAX TEMP:  45; 6HR PCP:  0.01;

WASHINGTON *   CLOUDY    45  45 100 E18G25    29.73F FOG
$$

ABBREVIATIONS USED IN REMARKS
   TC - TEMPERATURES IN CELSIUS
  WCI - WIND CHILL INDEX
   HX - HEAT INDEX
  VSB - VISIBILITY
$$




USA.gov is the U.S. government's official web portal to all federal, state and local government web resources and services.